Regional Weather Roundup
Issued by NWS

Home | Current Version | Previous Version | Graphics & Text | Print | Product List | Glossary Off
Versions: 1 2 3 4 5 6 7 8 9 10 11 12 13 14 15 16 17 18 19 20 21 22 23 24 25 26 27 28 29 30 31 32 33 34 35 36 37 38 39 40 41 42 43 44 45 46 47 48 49 50

325
ASUS43 KMKX 241900
RWRWI

WISCONSIN REGIONAL WEATHER ROUNDUP
NATIONAL WEATHER SERVICE MILWAUKEE/SULLIVAN WI
200 PM CDT WED AUG 24 2016

NOTE: "FAIR" INDICATES FEW OR NO CLOUDS BELOW 12,000 FEET WITH NO
SIGNIFICANT WEATHER AND/OR OBSTRUCTIONS TO VISIBILITY.

WIZ001-002-006>008-014>016-023>028-242000-
NORTHWEST WISCONSIN

CITY           SKY/WX    TMP DP  RH WIND       PRES   REMARKS
SUPERIOR ARPT  MOSUNNY   80  67  66 W13       29.81F HX  82
ASHLAND        PTSUNNY   78  66  66 SW10      29.82S HX  80
HAYWARD        CLOUDY    73  65  75 VRB7      29.87S
SIREN          MOSUNNY   78  65  63 W8        29.88S HX  80
CUMBERLAND     CLOUDY    73  64  73 W13       29.90R
RICE LAKE      CLOUDY    73  65  76 SW8       29.91R
CHETEK         NOT AVBL
LADYSMITH      MOSUNNY   75  66  74 W9        29.90S
EAU CLAIRE     NOT AVBL
MENOMONIE      CLOUDY    77  67  72 W8        29.91R
NEW RICHMOND   PTSUNNY   77  66  69 NW8       29.92R
OSCEOLA        PTSUNNY   78  66  66 W7        29.94R HX  80
$$

WIZ003>005-009-010-017-018-242000-
NORTH CENTRAL WISCONSIN

CITY           SKY/WX    TMP DP  RH WIND       PRES   REMARKS
MANITOWISH WTR NOT AVBL
ARBOR VITAE    CLOUDY    72  68  87 W7        29.86S
WOODRUFF       CLOUDY    72  68  87 W7        29.86S
RHINELANDER    LGT RAIN  71  70  96 W9        29.87S
EAGLE RIVER    CLOUDY    71  67  89 W8        29.86R
LAND O LAKES   CLOUDY    72  66  79 W7        29.86R
PHILLIPS       CLOUDY    71  66  84 W3        29.87S
TOMAHAWK       CLOUDY    69  66  89 W5        29.88S
MEDFORD        CLOUDY    74  67  80 W10       29.89R
MERRILL        CLOUDY    75  68  79 SW9       29.88R
$$

WIZ029-030-035-036-043>047-242000-
CENTRAL WISCONSIN

CITY           SKY/WX    TMP DP  RH WIND       PRES   REMARKS
WAUSAU         CLOUDY    72  67  84 W14       29.88R HAZE
MOSINEE        CLOUDY    70  70 100 SW12      29.91R FOG
MARSHFIELD     CLOUDY    74  69  85 W8        29.90R
STEVENS POINT  DRIZZLE   69  69  99 SW7       29.90R
WAUPACA        CLOUDY    78  71  78 SW12      29.88S HX  81
WAUTOMA        CLOUDY    79  71  76 SW13      29.89S HX  82
WISC RAPIDS    CLOUDY    73  72  96 W7        29.92R FOG
CAMP DOUGLAS   NOT AVBL
$$

WIZ011>013-019>022-031-037>040-048>050-242000-
NORTHEAST WISCONSIN

CITY           SKY/WX    TMP DP  RH WIND       PRES   REMARKS
ANTIGO         CLOUDY    70  69  96 W10       29.89R
SHAWANO        CLOUDY    74  70  85 W3        29.87R
OCONTO         NOT AVBL
STURGEON BAY   CLOUDY    77  68  73 SW12G18   29.86F
GREEN BAY      CLOUDY    78  71  79 SW13G22   29.86S HX  80
MANITOWOC      NOT AVBL
APPLETON       PTSUNNY   79  66  65 SW16      29.87F HX  81
CLINTONVILLE   CLOUDY    75  68  78 SW15      29.87R
OSHKOSH        MOSUNNY   81  70  69 SW12G22   29.88S HX  84
$$

WIZ032>034-041-042-053>061-242000-
SOUTHWEST WISCONSIN

CITY           SKY/WX    TMP DP  RH WIND       PRES   REMARKS
LA CROSSE      CLOUDY    79  32  18 S3        29.90R
SPARTA         CLOUDY    74  70  89 SW3       29.91S
VIROQUA        CLOUDY    77  72  83 W7        29.93S
BOSCOBEL       PTSUNNY   83  72  69 SW7       29.91R HX  88
PRAIRIE DU CHI CLOUDY    84  70  64 SW8       29.89S HX  88
PLATTEVILLE    MOSUNNY   81  76  82 SW13      29.94S HX  88
$$

WIZ056-057-062-063-064-067-068-242000-
SOUTH CENTRAL WISCONSIN

CITY           SKY/WX    TMP DP  RH WIND       PRES   REMARKS
REEDSBURG      NOT AVBL
BARABOO/DELLS  CLOUDY    78  70  76 SW12      29.91R HX  80
LONE ROCK      NOT AVBL
MINERAL POINT  CLOUDY    81  73  78 SW10      29.94S HX  85
MADISON        PTSUNNY   82  71  69 SW9       29.90F HX  86
MIDDLETON      MOSUNNY   82  72  70 SW10      29.92S HX  87
WATERTOWN      PTSUNNY   79  71  76 S14G21    29.91F HX  82
MONROE         PTSUNNY   81  72  74 SW14      29.94S HX  84
JANESVILLE     PTSUNNY   81  72  74 SW9       29.93S HX  84
$$

WIZ051-052-058>065-066-070>072-242000-
SOUTHEAST WISCONSIN

CITY           SKY/WX    TMP DP  RH WIND       PRES   REMARKS
MILWAUKEE      CLOUDY    82  68  62 SW17G24   29.91F HX  85
WAUKESHA       PTSUNNY   75  68  78 SW9G16    29.94F
MILWAUKEE/TIMM MOSUNNY   79  64  61 SW14      29.92F HX  81
RACINE         CLOUDY    81  70  69 SW12G18   29.93F HX  84
BURLINGTON     CLOUDY    77  69  75 SW12      29.94S
KENOSHA        CLOUDY    79  71  76 SW10      29.93F HX  82
FOND DU LAC    PTSUNNY   80  70  71 SW15G23   29.89S HX  83
SHEBOYGAN      MOSUNNY   82  68  62 SW14G24   29.89F HX  85
WEST BEND      CLOUDY    79  68  69 SW17G23   29.91F HX  81
JUNEAU         CLOUDY    78  70  77 S15       29.93S HX  80
$$

LSZ147-162-242000-
LAKE SUPERIOR

STATION/POSITION TIME  TEMP    WIND        PRES    WAVE
                       AIR SEA DIR/SP/G            HT/PER
                 (UTC) (F)     (DEG/KT/KT) (MB)    (FT/S)
W MID LAKE BUOY  1750   69 68  210/  6/  8 1008.1F   1
DEVILS ISLAND    1800   70     250/  7/ 11 1009.0F
PORT WING        1840   74     270/ 13/ 16 1009.8F
SAXON HARBOR     1800   76      60/  1/  3 1009.5S
$$

LMZ867-665-643>646-242000-
LAKE MICHIGAN

STATION/POSITION TIME  TEMP    WIND        PRES    WAVE
                       AIR SEA DIR/SP/G            HT/PER
                 (UTC) (F)     (DEG/KT/KT) (MB)    (FT/S)
CHAMBERS ISLAND  1800   73     200/  4/ 10 1010.5S
S GREEN BAY BUOY 1800   74 73  200/ 16/ 17 1010.4
N MID LAKE BUOY  1650   71 70  210/ 17/ 19 1009.8F   8/ 7
NORTHPORT PIER   1800   73     210/  3/ 11 1010.5S
SISTER BAY       1707   71     250/ 13/ 16   N/A
KEWAUNEE LAKESHO 1800          210/ 12/ 16 1010.9F
SHEBOYGAN LAKESH 1800   73     190/ 14/ 17 1011.5F
PORT WASHINGTON  1800   81     250/ 11/ 15 1013.5
ATWATER BUOY     1800   58 45  160/  8/ 12   N/A
MILWAUKEE LAKESH 1810   77     220/ 14/ 15   N/A
S MID LAKE BUOY  1750   74 74  180/ 14/ 17 1013.1F   4/ 6
KENOSHA   LAKESH 1800   68     170/  8/ 10 1013.5F
$$

TC  - TEMPERATURE IN CELSIUS
VSB - VISIBILITY IN STATUTE MILES
WCI - WIND CHILL INDEX
HX  - HEAT INDEX





USA.gov is the U.S. government's official web portal to all federal, state and local government web resources and services.